AEF431G BGGH-EDDH

Flight info

Callsign AEF431G
Flight time N/A
Altitude 27000
Route EVULO1A EVULO Y47 DA/M080F350 DCT NASOP UT592 NONRO DCT 6420N DCT 63N014W DCT NALAN/N0463F350 DCT 60N003W 59N000E DCT ATNAK DCT SISPU DCT BAVTA P992 ATTUS DCT GIKOG DCT RIBSO RIBSO3S
Aircraft A320/M-SDE3FGHIRWY/LB1

Departure

Time 2026-05-04 23:38
Airport Nuuk International Airport (BGGH)

Arrival

Time N/A
Airport Hamburg Helmut Schmidt Airport (EDDH)
Time Latitude Longitude Altitude Speed Heading
2026-05-04 23:16 64.18520 -51.67834 282 ft 0 kts 108°
2026-05-04 23:30 64.18525 -51.67870 281 ft 4 kts 103°
2026-05-04 23:30 64.18528 -51.67930 281 ft 4 kts 80°
2026-05-04 23:30 64.18519 -51.67977 291 ft 3 kts 20°
2026-05-04 23:31 64.18516 -51.67979 286 ft 0 kts 18°
2026-05-04 23:33 64.18539 -51.67962 287 ft 6 kts 17°
2026-05-04 23:34 64.18583 -51.67930 281 ft 8 kts 18°
2026-05-04 23:34 64.18628 -51.67981 281 ft 9 kts 301°
2026-05-04 23:34 64.18651 -51.68134 286 ft 11 kts 287°
2026-05-04 23:34 64.18612 -51.68290 282 ft 15 kts 203°
2026-05-04 23:35 64.18494 -51.68375 284 ft 20 kts 198°
2026-05-04 23:35 64.18339 -51.68495 281 ft 27 kts 198°
2026-05-04 23:35 64.18174 -51.68519 280 ft 16 kts 214°
2026-05-04 23:35 64.18170 -51.68617 279 ft 6 kts 14°
2026-05-04 23:36 64.18189 -51.68600 280 ft 0 kts 18°
2026-05-04 23:37 64.18255 -51.68552 280 ft 41 kts 17°
2026-05-04 23:37 64.18782 -51.68164 281 ft 115 kts 18°
2026-05-04 23:37 64.19723 -51.67480 356 ft 161 kts 17°
2026-05-04 23:38 64.20787 -51.66709 1070 ft 160 kts 19°
2026-05-04 23:38 64.21848 -51.65931 1885 ft 159 kts 20°
2026-05-04 23:38 64.22827 -51.64805 2632 ft 158 kts 39°
2026-05-04 23:38 64.23588 -51.62985 3269 ft 161 kts 66°
2026-05-04 23:39 64.23988 -51.60566 3932 ft 164 kts 75°
2026-05-04 23:39 64.24305 -51.58020 4608 ft 167 kts 77°
2026-05-04 23:39 64.24618 -51.55420 5287 ft 170 kts 77°
2026-05-04 23:39 64.24938 -51.52773 5953 ft 172 kts 77°
2026-05-04 23:40 64.25261 -51.50105 6630 ft 175 kts 77°
2026-05-04 23:40 64.25607 -51.47228 7011 ft 199 kts 77°
2026-05-04 23:40 64.25987 -51.43977 7386 ft 222 kts 77°
2026-05-04 23:40 64.26400 -51.40378 7854 ft 242 kts 77°
2026-05-04 23:41 64.26844 -51.36453 8324 ft 264 kts 77°
2026-05-04 23:41 64.27313 -51.32246 8866 ft 283 kts 77°
2026-05-04 23:41 64.27804 -51.27782 9696 ft 291 kts 77°
2026-05-04 23:41 64.28314 -51.23124 10400 ft 305 kts 77°
2026-05-04 23:42 64.28848 -51.18202 10730 ft 329 kts 77°
2026-05-04 23:42 64.29417 -51.12892 11044 ft 353 kts 77°
2026-05-04 23:42 64.30012 -51.07289 11301 ft 377 kts 77°
2026-05-04 23:42 64.30645 -51.01277 11459 ft 395 kts 77°
2026-05-04 23:43 64.31309 -50.95020 11702 ft 407 kts 76°
2026-05-04 23:43 64.32020 -50.88663 12171 ft 412 kts 77°
2026-05-04 23:43 64.32632 -50.82182 12699 ft 416 kts 79°
2026-05-04 23:43 64.33169 -50.75595 13244 ft 419 kts 81°
2026-05-04 23:44 64.33670 -50.68931 13789 ft 423 kts 81°
2026-05-04 23:44 64.34164 -50.62207 14268 ft 427 kts 81°
2026-05-04 23:44 64.34668 -50.55418 14718 ft 431 kts 81°
2026-05-04 23:44 64.35194 -50.48588 15155 ft 434 kts 80°
2026-05-04 23:45 64.35738 -50.41694 15574 ft 438 kts 80°
2026-05-04 23:45 64.36294 -50.34748 15998 ft 442 kts 80°
2026-05-04 23:45 64.36856 -50.27750 16411 ft 445 kts 80°
2026-05-04 23:45 64.37413 -50.20688 16817 ft 449 kts 80°
2026-05-04 23:46 64.37967 -50.13557 17207 ft 452 kts 80°
2026-05-04 23:46 64.38561 -50.06401 17611 ft 456 kts 76°
2026-05-04 23:46 64.39518 -49.99384 17992 ft 459 kts 70°
2026-05-04 23:46 64.40588 -49.92403 18368 ft 462 kts 70°
2026-05-04 23:47 64.41662 -49.85364 18706 ft 465 kts 70°
2026-05-04 23:47 64.42735 -49.78280 19045 ft 468 kts 70°
2026-05-04 23:47 64.43810 -49.71140 19367 ft 471 kts 70°
2026-05-04 23:47 64.44884 -49.63960 19690 ft 474 kts 71°
2026-05-04 23:48 64.45962 -49.56716 20028 ft 476 kts 71°
2026-05-04 23:48 64.47041 -49.49442 20329 ft 479 kts 71°
2026-05-04 23:48 64.48111 -49.42211 20617 ft 482 kts 71°
2026-05-04 23:48 64.49195 -49.34840 20898 ft 484 kts 71°
2026-05-04 23:49 64.50279 -49.27438 21276 ft 484 kts 71°
2026-05-04 23:49 64.51362 -49.20031 21665 ft 484 kts 71°
2026-05-04 23:49 64.52441 -49.12628 22049 ft 484 kts 70°
2026-05-04 23:49 64.53516 -49.05212 22419 ft 485 kts 71°
2026-05-04 23:50 64.54584 -48.97782 22786 ft 485 kts 71°
2026-05-04 23:50 64.55646 -48.90336 23177 ft 485 kts 71°
2026-05-04 23:50 64.56708 -48.82878 23574 ft 486 kts 70°
2026-05-04 23:50 64.57772 -48.75413 23923 ft 486 kts 70°
2026-05-04 23:51 64.58830 -48.67943 24249 ft 486 kts 70°
2026-05-04 23:51 64.59883 -48.60454 24583 ft 487 kts 70°
2026-05-04 23:51 64.60933 -48.52961 24918 ft 487 kts 70°
2026-05-04 23:51 64.61981 -48.45443 25264 ft 487 kts 70°
2026-05-04 23:52 64.63025 -48.37915 25608 ft 488 kts 70°
2026-05-04 23:52 64.64040 -48.30359 25971 ft 488 kts 71°
2026-05-04 23:52 64.65023 -48.22770 26335 ft 489 kts 71°
2026-05-04 23:52 64.65977 -48.15154 26696 ft 489 kts 72°
2026-05-04 23:53 64.66915 -48.07502 27068 ft 490 kts 72°
2026-05-04 23:53 64.67846 -47.99859 27432 ft 490 kts 72°
2026-05-04 23:53 64.68779 -47.92197 27812 ft 490 kts 72°
2026-05-04 23:53 64.69714 -47.84544 28186 ft 490 kts 71°
2026-05-04 23:54 64.70657 -47.76879 28566 ft 490 kts 71°
2026-05-04 23:54 64.71598 -47.69215 28947 ft 491 kts 71°
2026-05-04 23:54 64.72538 -47.61533 29321 ft 491 kts 71°
2026-05-04 23:54 64.73476 -47.53848 29694 ft 491 kts 71°
2026-05-04 23:55 64.74398 -47.46258 30067 ft 492 kts 71°
2026-05-04 23:55 64.75327 -47.38556 30416 ft 492 kts 71°
2026-05-04 23:55 64.77163 -47.23110 31057 ft 492 kts 71°
2026-05-04 23:56 64.78075 -47.15358 31157 ft 495 kts 71°
2026-05-04 23:56 64.79924 -46.99556 31170 ft 510 kts 71°
2026-05-04 23:57 64.81820 -46.83288 31170 ft 522 kts 71°
2026-05-04 23:57 64.83723 -46.66753 31165 ft 525 kts 72°
2026-05-04 23:58 64.85601 -46.50155 31167 ft 526 kts 72°
2026-05-04 23:58 64.87467 -46.33516 31166 ft 526 kts 72°
2026-05-04 23:59 64.89298 -46.16968 31166 ft 526 kts 72°
2026-05-04 23:59 64.91132 -46.00273 31167 ft 527 kts 72°
2026-05-05 00:00 64.92945 -45.83647 31168 ft 527 kts 72°
2026-05-05 00:00 64.94743 -45.66883 31167 ft 527 kts 72°
2026-05-05 00:01 64.96513 -45.50069 31171 ft 528 kts 72°
2026-05-05 00:01 64.98274 -45.33229 31173 ft 528 kts 72°